This is the latest recevied weather packets stored in our database for station/object WA6ODQ-13. If no packets are shown the sender has not sent any weather packets the latest 10 day(s).
| Time | Temp. | Humidity | Pressure | Rain* | Wind** | Luminosity | Snow |
|---|---|---|---|---|---|---|---|
| 1778033583 | 16.67° C | 78% | 1013.3 hPa | 0 mm | - | 37 W/m² | - |
| 1778033280 | 16.67° C | 77% | 1013.3 hPa | 0 mm | - | 45 W/m² | - |
| 1778032978 | 17.22° C | 77% | 1013.4 hPa | 0 mm | - | 46 W/m² | - |
| 1778032676 | 17.22° C | 76% | 1013.6 hPa | 0 mm | - | 53 W/m² | - |
| 1778032373 | 17.22° C | 76% | 1013.7 hPa | 0 mm | - | 52 W/m² | - |
| 1778032069 | 17.22° C | 76% | 1013.4 hPa | 0 mm | - | 57 W/m² | - |
| 1778031766 | 17.22° C | 76% | 1013.5 hPa | 0 mm | - | 63 W/m² | - |
| 1778031463 | 17.78° C | 76% | 1013.4 hPa | 0 mm | - | 63 W/m² | - |
| 1778031160 | 17.78° C | 76% | 1013.4 hPa | 0 mm | - | 66 W/m² | - |
| 1778030856 | 17.78° C | 75% | 1013.4 hPa | 0 mm | - | 69 W/m² | - |
| 1778030554 | 17.78° C | 74% | 1013.4 hPa | 0 mm | - | 69 W/m² | - |
| 1778030251 | 17.78° C | 74% | 1013.3 hPa | 0 mm | - | 83 W/m² | - |
| 1778029947 | 18.33° C | 74% | 1013.3 hPa | 0 mm | - | 94 W/m² | - |
| 1778029646 | 18.33° C | 74% | 1013.1 hPa | 0 mm | - | 116 W/m² | - |
| 1778029343 | 18.33° C | 74% | 1013.2 hPa | 0 mm | - | 105 W/m² | - |
| 1778029040 | 18.33° C | 73% | 1013.2 hPa | 0 mm | - | 123 W/m² | - |
| 1778028736 | 18.33° C | 73% | 1013.2 hPa | 0 mm | - | 135 W/m² | - |
| 1778028432 | 18.33° C | 72% | 1013.2 hPa | 0 mm | - | 160 W/m² | - |
| 1778028130 | 18.89° C | 72% | 1013.2 hPa | 0 mm | - | 165 W/m² | - |
| 1778027826 | 18.89° C | 72% | 1013.2 hPa | 0 mm | - | 174 W/m² | - |
| 1778027522 | 18.89° C | 72% | 1013.1 hPa | 0 mm | - | 177 W/m² | - |
| 1778027219 | 18.89° C | 72% | 1013 hPa | 0 mm | - | 165 W/m² | - |
| 1778026915 | 18.89° C | 72% | 1013 hPa | 0 mm | - | 177 W/m² | - |
| 1778026610 | 18.89° C | 72% | 1013.1 hPa | 0 mm | - | 146 W/m² | - |
| 1778026308 | 18.89° C | 73% | 1012.8 hPa | 0 mm | - | 165 W/m² | - |
* Rain latest hour (hover to see other rain measurements)
** Current wind speed in m/s (hover to see current wind gust speed)